Location: Unspecified
(0.0000°N, 0.0000°E)
Time: 00:14:41
(UTC+00:00)

S-56A Canister/Altair - Pass Details

Date: 21 December 2018
Orbit: 633 x 2500 km, 38.9° (Epoch: 18 January)

Event Time Altitude Azimuth Distance (km) Brightness Sun altitude
Rises 08:18:15 0° 320° (NW) 5,886 11.6 31.8°
Reaches altitude 10° 08:22:03 10° 324° (NW) 5,010 11.3 32.6°
Maximum altitude 08:36:45 60° 41° (NE) 2,725 10.9 35.9°
Drops below altitude 10° 08:50:15 10° 118° (ESE) 4,663 12.8 38.8°
Sets 08:53:36 0° 121° (ESE) 5,472 12.8 39.5°
